Location: Albany
(35.0000°S, 118.0000°E)
Time: 02:46:27
(UTC-04:00)

Atlas Centaur 2 - Visible Passes

Search period start: 25 April 2018 00:00
Search period end: 05 May 2018 00:00
Orbit: 459 x 1312 km, 30.4° (Epoch: 24 April)

Date Brightness Start Highest point End Pass type
(mag) Time Alt. Az. Time Alt. Az. Time Alt. Az.
25 Apr 2.1 07:16:06 10° WNW 07:19:29 38° N 07:19:29 38° N visible
26 Apr 1.9 07:12:41 10° WNW 07:16:13 41° N 07:16:13 41° N visible
27 Apr 1.8 07:09:18 10° WNW 07:12:48 42° N 07:12:57 42° N visible
28 Apr 1.8 07:05:56 10° WNW 07:09:24 42° N 07:09:42 41° NNE visible
29 Apr 1.9 07:02:34 10° WNW 07:06:00 40° N 07:06:27 38° NNE visible
30 Apr 2.0 06:59:14 10° WNW 07:02:35 37° N 07:03:15 34° NNE visible
01 May 2.2 06:55:54 10° WNW 06:59:11 33° N 07:00:05 28° NNE visible
02 May 2.5 06:52:36 10° WNW 06:55:45 28° NNW 06:56:58 23° NNE visible
03 May 2.8 06:49:20 10° WNW 06:52:19 24° NNW 06:53:55 18° NNE visible
04 May 3.2 06:46:08 10° WNW 06:48:51 20° NNW 06:50:56 13° NNE visible
